contact:dominique.lefevre@mio.osupytheas.fr, maurice.libes@osupytheas.fr, didier.mallarino@osupytheas.fr
Project:EMSO http://www.emso-fr.org/EMSO-France
Depth: 2436.0 m
Title:EMSO Ligure Ouest : Data MII capteur AQUADOPP
Date,Latitude,Longitude,X_East,Y_North,Z_Up,Amplitude_X,Amplitude_Y,Amplitude_Z,Batterie,SoundSpeed,Heading,Pitch,Roll,Pressure,TIS,Speed,Direction
, degrees North, degrees East, m.s-1, m.s-1,m.s-1, 1, 1, 1, Volt, m.s-1, degree, degree, degree, dbar, degree_C, m.s-1, degree
2020-08-28T00:04:03,42.805,6.029,-0.012,-0.014,-0.03,103.0,107.0,103.0,13.4,1505.3,324.6,-0.7,1.8,2470.378,13.32,0.018,220.6
2020-08-28T00:07:03,42.805,6.029,-0.02,0.0,-0.023,106.0,108.0,103.0,13.3,1505.3,323.9,-0.7,1.8,2470.36,13.33,0.02,270.0
2020-08-28T00:10:03,42.805,6.029,-0.029,-0.011,0.0,106.0,108.0,103.0,13.4,1505.3,324.3,-0.7,1.9,2470.352,13.33,0.031,249.2
2020-08-28T00:13:03,42.805,6.029,-0.044,0.02,-0.05,105.0,107.0,103.0,13.4,1505.4,326.6,-0.7,1.9,2470.369,13.34,0.048,294.4
2020-08-28T00:16:03,42.805,6.029,-0.03,0.0,-0.052,103.0,108.0,100.0,13.3,1505.4,327.8,-0.7,1.9,2470.405,13.34,0.03,270.0
2020-08-28T00:19:03,42.805,6.029,-0.008,0.015,-0.018,105.0,107.0,102.0,13.3,1505.4,327.4,-0.6,1.8,2470.352,13.34,0.017,331.9
2020-08-28T00:22:03,42.805,6.029,-0.059,0.019,-0.079,103.0,106.0,102.0,13.3,1505.4,326.7,-0.7,1.8,2470.379,13.34,0.061,287.8
2020-08-28T00:25:03,42.805,6.029,-0.035,-0.01,-0.048,104.0,108.0,101.0,13.3,1505.4,325.2,-0.7,1.8,2470.353,13.34,0.036,254.1
2020-08-28T00:28:03,42.805,6.029,-0.054,-0.001,-0.05,103.0,107.0,102.0,13.3,1505.4,325.8,-0.7,1.9,2470.387,13.34,0.054,268.9
2020-08-28T00:31:03,42.805,6.029,-0.01,0.006,-0.025,103.0,106.0,101.0,13.3,1505.4,326.1,-0.7,1.8,2470.343,13.34,0.011,301.0
2020-08-28T00:34:03,42.805,6.029,-0.028,0.007,-0.023,104.0,106.0,104.0,13.4,1505.4,324.2,-0.7,1.9,2470.371,13.35,0.028,284.0
2020-08-28T00:37:03,42.805,6.029,-0.027,0.022,0.013,104.0,104.0,103.0,13.3,1505.4,326.6,-0.7,1.8,2470.337,13.35,0.034,309.2
2020-08-28T00:40:03,42.805,6.029,-0.021,0.005,-0.012,103.0,107.0,99.0,13.4,1505.4,326.5,-0.7,1.9,2470.383,13.35,0.021,283.4
2020-08-28T00:43:03,42.805,6.029,0.008,-0.003,0.013,110.0,105.0,102.0,13.4,1505.4,324.7,-0.7,1.8,2470.372,13.34,0.008,110.6
2020-08-28T00:46:03,42.805,6.029,-0.02,0.007,-0.003,101.0,105.0,102.0,13.4,1505.4,324.6,-0.6,1.8,2470.385,13.35,0.021,289.3
2020-08-28T00:49:03,42.805,6.029,-0.029,-0.012,-0.042,104.0,105.0,101.0,13.3,1505.4,325.9,-0.7,1.8,2470.346,13.35,0.031,247.5
2020-08-28T00:52:03,42.805,6.029,-0.037,0.021,-0.047,103.0,105.0,102.0,13.3,1505.4,324.5,-0.7,1.8,2470.346,13.35,0.042,299.6
2020-08-28T00:55:03,42.805,6.029,-0.027,0.023,-0.032,103.0,105.0,101.0,13.4,1505.4,327.3,-0.7,1.8,2470.331,13.35,0.035,310.4
2020-08-28T00:58:03,42.805,6.029,-0.027,0.002,-0.031,103.0,106.0,102.0,13.3,1505.4,323.0,-0.7,1.9,2470.433,13.35,0.027,274.2
2020-08-28T01:04:03,42.805,6.029,0.006,-0.014,-0.006,105.0,106.0,103.0,13.4,1505.3,325.3,-0.7,1.8,2470.437,13.33,0.015,156.8
2020-08-28T01:07:03,42.805,6.029,-0.008,0.001,0.0,104.0,105.0,102.0,13.4,1505.3,326.6,-0.7,1.8,2470.348,13.33,0.008,277.1
2020-08-28T01:10:03,42.805,6.029,-0.005,0.012,0.021,104.0,106.0,103.0,13.4,1505.4,326.9,-0.7,1.9,2470.367,13.34,0.013,337.4
2020-08-28T01:13:03,42.805,6.029,-0.006,0.009,0.023,104.0,106.0,102.0,13.4,1505.4,324.4,-0.7,1.9,2470.415,13.34,0.01,326.3
2020-08-28T01:16:03,42.805,6.029,0.02,-0.008,0.001,105.0,105.0,101.0,13.3,1505.4,324.9,-0.7,1.8,2470.394,13.34,0.021,111.8
2020-08-28T01:19:03,42.805,6.029,-0.017,-0.007,0.001,104.0,106.0,101.0,13.4,1505.4,325.9,-0.7,1.8,2470.409,13.34,0.018,247.6
2020-08-28T01:22:03,42.805,6.029,-0.03,0.013,-0.038,102.0,106.0,104.0,13.4,1505.4,327.5,-0.7,1.8,2470.353,13.34,0.032,293.4
2020-08-28T01:25:03,42.805,6.029,-0.007,0.001,-0.001,103.0,107.0,102.0,13.4,1505.4,327.5,-0.7,1.8,2470.403,13.34,0.007,278.1
2020-08-28T01:28:03,42.805,6.029,0.007,-0.004,-0.014,101.0,106.0,101.0,13.4,1505.4,326.2,-0.7,1.8,2470.373,13.34,0.008,119.7
2020-08-28T01:31:03,42.805,6.029,-0.003,0.006,0.015,102.0,105.0,101.0,13.4,1505.4,322.7,-0.7,1.8,2470.35,13.34,0.006,333.4
2020-08-28T01:34:03,42.805,6.029,-0.006,0.006,0.034,103.0,104.0,102.0,13.4,1505.4,324.0,-0.7,1.8,2470.343,13.34,0.008,315.0
2020-08-28T01:37:03,42.805,6.029,-0.002,0.009,0.005,102.0,105.0,101.0,13.3,1505.4,324.8,-0.7,1.8,2470.324,13.35,0.009,347.5
2020-08-28T01:40:03,42.805,6.029,-0.003,0.016,0.022,102.0,105.0,102.0,13.3,1505.4,326.4,-0.7,1.8,2470.428,13.35,0.016,349.4
2020-08-28T01:43:03,42.805,6.029,0.008,0.002,-0.022,103.0,106.0,101.0,13.4,1505.4,323.5,-0.7,1.8,2470.384,13.35,0.008,76.0
2020-08-28T01:46:03,42.805,6.029,-0.001,-0.004,-0.015,104.0,108.0,100.0,13.3,1505.4,325.4,-0.7,1.8,2470.379,13.35,0.004,194.0
2020-08-28T01:49:03,42.805,6.029,0.022,-0.007,0.003,104.0,105.0,101.0,13.4,1505.4,326.5,-0.8,1.8,2470.377,13.35,0.023,107.6
2020-08-28T01:52:03,42.805,6.029,0.009,-0.004,0.016,102.0,106.0,102.0,13.3,1505.4,324.5,-0.7,1.8,2470.385,13.35,0.009,114.0
2020-08-28T01:55:03,42.805,6.029,-0.018,0.005,0.005,106.0,107.0,101.0,13.4,1505.4,326.7,-0.7,1.8,2470.352,13.35,0.018,285.5
2020-08-28T01:58:03,42.805,6.029,-0.019,-0.014,-0.021,105.0,107.0,102.0,13.4,1505.4,325.7,-0.7,1.8,2470.357,13.34,0.023,233.6
2020-08-28T02:04:03,42.805,6.029,-0.028,0.0,0.003,105.0,109.0,104.0,13.4,1505.3,325.8,-0.7,1.8,2470.393,13.33,0.028,270.0
2020-08-28T02:07:03,42.805,6.029,0.0,0.015,0.003,106.0,108.0,103.0,13.4,1505.3,327.2,-0.7,1.8,2470.406,13.33,0.015,0.0
2020-08-28T02:10:03,42.805,6.029,-0.019,0.0,0.003,106.0,108.0,103.0,13.3,1505.3,326.5,-0.7,1.8,2470.41,13.33,0.019,270.0
2020-08-28T02:13:03,42.805,6.029,-0.032,0.007,-0.023,105.0,109.0,103.0,13.3,1505.4,327.8,-0.7,1.8,2470.417,13.34,0.032,282.3
2020-08-28T02:16:03,42.805,6.029,-0.007,-0.013,0.001,109.0,108.0,103.0,13.4,1505.4,324.2,-0.7,1.8,2470.396,13.34,0.014,208.3
2020-08-28T02:19:03,42.805,6.029,-0.031,-0.003,-0.001,106.0,106.0,103.0,13.3,1505.4,326.3,-0.7,1.8,2470.365,13.34,0.031,264.5
2020-08-28T02:22:03,42.805,6.029,0.002,0.002,-0.001,104.0,107.0,103.0,13.3,1505.4,325.4,-0.7,1.9,2470.381,13.34,0.002,45.0
2020-08-28T02:25:03,42.805,6.029,0.0,0.002,-0.001,105.0,108.0,103.0,13.4,1505.4,327.5,-0.7,1.8,2470.351,13.34,0.002,0.0
2020-08-28T02:28:03,42.805,6.029,0.0,0.0,-0.01,105.0,106.0,104.0,13.4,1505.4,325.0,-0.7,1.8,2470.378,13.34,0.0,0.0
2020-08-28T02:31:03,42.805,6.029,-0.001,0.01,0.015,106.0,107.0,103.0,13.4,1505.4,323.1,-0.7,1.8,2470.379,13.34,0.01,354.3
2020-08-28T02:34:03,42.805,6.029,-0.023,-0.004,0.0,105.0,107.0,102.0,13.3,1505.4,323.0,-0.7,1.8,2470.378,13.34,0.023,260.1
2020-08-28T02:37:03,42.805,6.029,-0.001,-0.004,-0.004,106.0,106.0,102.0,13.3,1505.4,323.5,-0.7,1.8,2470.334,13.34,0.004,194.0
2020-08-28T02:40:03,42.805,6.029,-0.015,0.004,0.01,104.0,111.0,102.0,13.4,1505.4,323.8,-0.7,1.8,2470.375,13.34,0.015,284.9
2020-08-28T02:43:03,42.805,6.029,-0.018,0.0,-0.005,106.0,110.0,103.0,13.4,1505.4,324.7,-0.7,1.8,2470.326,13.34,0.018,270.0
2020-08-28T02:46:03,42.805,6.029,-0.007,-0.001,0.006,108.0,108.0,104.0,13.4,1505.4,326.4,-0.7,1.8,2470.393,13.34,0.007,261.9
2020-08-28T02:49:03,42.805,6.029,-0.038,0.004,-0.004,107.0,109.0,104.0,13.4,1505.4,328.2,-0.7,1.8,2470.362,13.34,0.038,276.0
2020-08-28T02:52:03,42.805,6.029,-0.018,0.007,-0.02,106.0,111.0,102.0,13.4,1505.4,324.5,-0.8,1.8,2470.384,13.34,0.019,291.2
2020-08-28T02:55:03,42.805,6.029,-0.049,-0.008,-0.022,107.0,110.0,104.0,13.3,1505.4,323.6,-0.7,1.8,2470.375,13.34,0.049,260.7
2020-08-28T02:58:03,42.805,6.029,-0.022,-0.008,0.0,108.0,109.0,103.0,13.4,1505.4,324.1,-0.7,1.8,2470.39,13.34,0.023,250.0
2020-08-28T03:04:03,42.805,6.029,-0.032,0.001,-0.025,106.0,109.0,103.0,13.3,1505.3,326.2,-0.7,1.8,2470.442,13.32,0.032,271.8
2020-08-28T03:07:03,42.805,6.029,-0.031,-0.009,-0.041,107.0,110.0,103.0,13.4,1505.3,324.3,-0.7,1.8,2470.443,13.33,0.032,253.8
2020-08-28T03:10:03,42.805,6.029,-0.014,0.002,0.009,105.0,109.0,103.0,13.3,1505.3,326.4,-0.7,1.8,2470.38,13.33,0.014,278.1
2020-08-28T03:13:03,42.805,6.029,-0.022,0.0,-0.028,105.0,109.0,103.0,13.3,1505.3,325.7,-0.7,1.8,2470.376,13.33,0.022,270.0
2020-08-28T03:16:03,42.805,6.029,-0.04,0.0,-0.047,105.0,110.0,103.0,13.4,1505.4,324.4,-0.7,1.8,2470.351,13.34,0.04,270.0
2020-08-28T03:19:03,42.805,6.029,-0.049,0.001,-0.051,104.0,110.0,102.0,13.4,1505.4,326.5,-0.7,1.9,2470.401,13.34,0.049,271.2
2020-08-28T03:22:03,42.805,6.029,-0.038,-0.009,-0.023,106.0,108.0,102.0,13.3,1505.4,326.6,-0.7,1.9,2470.381,13.34,0.039,256.7
2020-08-28T03:25:03,42.805,6.029,-0.023,-0.005,-0.009,107.0,110.0,102.0,13.4,1505.4,325.4,-0.7,1.8,2470.343,13.34,0.023,257.7
2020-08-28T03:28:03,42.805,6.029,-0.051,0.018,-0.018,105.0,110.0,105.0,13.4,1505.4,323.4,-0.7,1.8,2470.388,13.34,0.054,289.4
2020-08-28T03:31:03,42.805,6.029,-0.033,-0.01,-0.021,106.0,109.0,103.0,13.4,1505.4,326.3,-0.7,1.8,2470.403,13.34,0.034,253.1
2020-08-28T03:34:03,42.805,6.029,-0.017,0.005,-0.007,107.0,110.0,103.0,13.3,1505.4,327.2,-0.7,1.8,2470.393,13.34,0.017,286.4
2020-08-28T03:37:03,42.805,6.029,-0.009,0.034,0.009,109.0,109.0,104.0,13.4,1505.4,324.0,-0.7,1.8,2470.358,13.34,0.035,345.2
2020-08-28T03:40:03,42.805,6.029,-0.003,0.004,-0.023,106.0,109.0,105.0,13.4,1505.4,324.7,-0.8,1.8,2470.415,13.34,0.005,323.1
2020-08-28T03:43:03,42.805,6.029,-0.027,0.003,-0.018,110.0,108.0,104.0,13.3,1505.4,324.9,-0.7,1.8,2470.336,13.34,0.027,276.3
2020-08-28T03:46:03,42.805,6.029,-0.033,0.0,-0.031,108.0,109.0,104.0,13.4,1505.4,324.5,-0.7,1.8,2470.394,13.34,0.033,270.0
2020-08-28T03:49:03,42.805,6.029,-0.038,0.008,-0.024,107.0,109.0,105.0,13.3,1505.3,325.7,-0.7,1.8,2470.34,13.33,0.038,281.9
2020-08-28T03:52:03,42.805,6.029,-0.036,0.011,-0.032,109.0,110.0,105.0,13.4,1505.3,324.6,-0.7,1.8,2470.356,13.33,0.037,287.0
2020-08-28T03:55:03,42.805,6.029,-0.02,0.019,0.007,103.0,108.0,102.0,13.4,1505.3,326.7,-0.7,1.8,2470.348,13.33,0.027,313.5
2020-08-28T03:58:03,42.805,6.029,-0.031,0.017,0.024,105.0,109.0,102.0,13.4,1505.3,325.4,-0.7,1.8,2470.403,13.33,0.035,298.7
2020-08-28T04:04:03,42.805,6.029,-0.031,0.016,0.003,103.0,109.0,102.0,13.4,1505.3,325.5,-0.7,1.8,2470.437,13.31,0.034,297.3
2020-08-28T04:07:03,42.805,6.029,-0.008,-0.003,0.021,105.0,108.0,102.0,13.4,1505.3,326.2,-0.7,1.8,2470.405,13.32,0.008,249.4
2020-08-28T04:10:03,42.805,6.029,-0.037,0.018,-0.018,105.0,109.0,103.0,13.3,1505.3,323.7,-0.7,1.8,2470.377,13.32,0.041,295.9
2020-08-28T04:13:03,42.805,6.029,-0.036,0.017,-0.016,104.0,109.0,103.0,13.3,1505.3,324.6,-0.7,1.8,2470.366,13.32,0.039,295.3
2020-08-28T04:16:03,42.805,6.029,-0.029,0.033,-0.023,105.0,109.0,103.0,13.4,1505.3,327.8,-0.7,1.8,2470.428,13.33,0.043,318.7
2020-08-28T04:19:03,42.805,6.029,-0.03,0.008,0.007,105.0,110.0,101.0,13.4,1505.3,327.0,-0.7,1.8,2470.439,13.33,0.031,284.9
2020-08-28T04:22:03,42.805,6.029,-0.037,0.034,-0.016,104.0,111.0,103.0,13.4,1505.3,327.7,-0.7,1.9,2470.392,13.33,0.05,312.6
2020-08-28T04:25:03,42.805,6.029,-0.051,0.019,-0.045,103.0,109.0,101.0,13.4,1505.3,324.0,-0.7,1.8,2470.371,13.33,0.054,290.4
2020-08-28T04:28:03,42.805,6.029,-0.023,0.003,-0.02,105.0,108.0,103.0,13.4,1505.3,324.4,-0.7,1.8,2470.381,13.33,0.023,277.4
2020-08-28T04:31:03,42.805,6.029,-0.04,0.001,-0.012,104.0,109.0,104.0,13.4,1505.3,325.2,-0.7,1.8,2470.389,13.33,0.04,271.4
2020-08-28T04:34:03,42.805,6.029,-0.025,0.003,-0.018,104.0,113.0,104.0,13.4,1505.3,325.7,-0.7,1.9,2470.363,13.33,0.025,276.8
2020-08-28T04:37:03,42.805,6.029,-0.021,0.025,-0.006,104.0,110.0,102.0,13.4,1505.3,327.0,-0.7,1.8,2470.36,13.33,0.032,320.0
2020-08-28T04:40:03,42.805,6.029,-0.038,0.031,0.009,106.0,108.0,102.0,13.4,1505.3,326.9,-0.7,1.8,2470.393,13.33,0.049,309.2
2020-08-28T04:43:03,42.805,6.029,-0.023,0.02,-0.015,103.0,111.0,105.0,13.3,1505.3,328.4,-0.7,1.8,2470.397,13.33,0.03,311.0
2020-08-28T04:46:03,42.805,6.029,-0.033,0.025,-0.01,105.0,107.0,104.0,13.4,1505.3,327.6,-0.7,1.9,2470.338,13.33,0.041,307.1
2020-08-28T04:49:03,42.805,6.029,-0.058,0.024,-0.021,104.0,109.0,104.0,13.3,1505.3,324.8,-0.7,1.9,2470.406,13.33,0.062,292.5
2020-08-28T04:52:03,42.805,6.029,-0.008,0.031,0.023,104.0,109.0,102.0,13.3,1505.3,324.9,-0.7,1.8,2470.401,13.33,0.032,345.5
2020-08-28T04:55:03,42.805,6.029,-0.008,0.016,0.005,104.0,109.0,102.0,13.3,1505.3,328.2,-0.7,1.8,2470.36,13.33,0.017,333.4
2020-08-28T04:58:03,42.805,6.029,-0.055,0.033,0.022,102.0,110.0,103.0,13.4,1505.3,324.6,-0.7,1.8,2470.35,13.33,0.064,301.0
2020-08-28T05:04:03,42.805,6.029,-0.026,0.021,-0.023,104.0,109.0,102.0,13.3,1505.3,326.1,-0.7,1.8,2470.394,13.31,0.033,308.9
2020-08-28T05:07:03,42.805,6.029,-0.05,0.028,-0.024,105.0,110.0,103.0,13.4,1505.3,325.5,-0.7,1.8,2470.417,13.31,0.057,299.3
2020-08-28T05:10:03,42.805,6.029,-0.037,0.005,-0.012,104.0,109.0,102.0,13.3,1505.3,324.2,-0.7,1.8,2470.401,13.32,0.037,277.7
2020-08-28T05:13:03,42.805,6.029,-0.048,0.002,-0.052,107.0,109.0,104.0,13.4,1505.3,326.2,-0.7,1.9,2470.413,13.32,0.048,272.4
2020-08-28T05:16:03,42.805,6.029,-0.026,0.028,-0.013,104.0,108.0,103.0,13.4,1505.3,327.9,-0.7,1.9,2470.371,13.33,0.038,317.1
2020-08-28T05:19:03,42.805,6.029,-0.014,0.021,-0.007,105.0,108.0,102.0,13.3,1505.3,322.8,-0.7,1.8,2470.392,13.33,0.025,326.3
2020-08-28T05:22:03,42.805,6.029,-0.048,0.019,0.021,103.0,110.0,101.0,13.4,1505.3,326.5,-0.7,1.8,2470.405,13.33,0.051,291.6
2020-08-28T05:25:03,42.805,6.029,-0.014,0.035,0.007,105.0,108.0,102.0,13.4,1505.3,325.0,-0.7,1.8,2470.38,13.33,0.037,338.2
2020-08-28T05:28:03,42.805,6.029,-0.031,0.013,-0.005,104.0,107.0,101.0,13.3,1505.3,324.6,-0.7,1.8,2470.353,13.33,0.033,292.7
2020-08-28T05:31:03,42.805,6.029,-0.027,0.027,-0.008,103.0,106.0,102.0,13.4,1505.3,327.5,-0.7,1.8,2470.327,13.33,0.038,315.0
2020-08-28T05:34:03,42.805,6.029,-0.049,0.011,0.013,104.0,108.0,101.0,13.4,1505.3,323.0,-0.7,1.9,2470.374,13.33,0.05,282.7
2020-08-28T05:37:03,42.805,6.029,-0.024,0.014,-0.004,103.0,108.0,101.0,13.3,1505.3,326.5,-0.7,1.8,2470.331,13.33,0.027,300.3
2020-08-28T05:40:03,42.805,6.029,-0.023,0.022,-0.01,102.0,106.0,102.0,13.4,1505.3,325.2,-0.7,1.8,2470.315,13.33,0.031,313.7
2020-08-28T05:43:03,42.805,6.029,-0.035,0.021,-0.006,102.0,108.0,102.0,13.3,1505.3,328.2,-0.7,1.8,2470.331,13.33,0.04,301.0
2020-08-28T05:49:03,42.805,6.029,-0.044,0.009,-0.027,103.0,107.0,102.0,13.3,1505.3,326.6,-0.7,1.8,2470.376,13.31,0.044,281.6
2020-08-28T05:52:03,42.805,6.029,-0.037,0.021,-0.025,102.0,106.0,101.0,13.3,1505.3,324.6,-0.7,1.8,2470.359,13.32,0.042,299.6
2020-08-28T05:55:03,42.805,6.029,-0.021,0.0,-0.02,103.0,107.0,100.0,13.4,1505.3,327.9,-0.7,1.8,2470.348,13.32,0.021,270.0
2020-08-28T05:58:03,42.805,6.029,-0.045,0.032,-0.006,102.0,107.0,101.0,13.4,1505.3,325.3,-0.7,1.8,2470.349,13.32,0.055,305.4
2020-08-28T06:04:03,42.805,6.029,-0.019,0.013,0.0,102.0,107.0,102.0,13.4,1505.3,323.4,-0.7,1.8,2470.42,13.31,0.023,304.4
2020-08-28T06:07:03,42.805,6.029,-0.02,0.027,0.022,101.0,106.0,102.0,13.4,1505.3,324.0,-0.7,1.8,2470.412,13.31,0.033,323.5
2020-08-28T06:10:03,42.805,6.029,-0.041,0.024,-0.03,102.0,107.0,101.0,13.4,1505.3,327.1,-0.7,1.8,2470.406,13.32,0.047,300.3
2020-08-28T06:13:03,42.805,6.029,-0.023,0.013,-0.018,104.0,108.0,101.0,13.4,1505.3,328.2,-0.7,1.8,2470.377,13.32,0.026,299.5
2020-08-28T06:16:03,42.805,6.029,-0.034,0.023,0.003,103.0,108.0,100.0,13.4,1505.3,327.6,-0.7,1.8,2470.382,13.32,0.041,304.1
2020-08-28T06:19:03,42.805,6.029,-0.016,0.044,0.0,105.0,108.0,101.0,13.3,1505.3,325.5,-0.7,1.9,2470.362,13.33,0.046,340.0
2020-08-28T06:22:03,42.805,6.029,-0.039,0.008,-0.034,103.0,108.0,101.0,13.4,1505.3,324.8,-0.7,1.8,2470.357,13.33,0.039,281.6
2020-08-28T06:25:03,42.805,6.029,-0.046,0.011,0.007,106.0,108.0,102.0,13.3,1505.3,327.0,-0.7,1.8,2470.321,13.33,0.047,283.4
2020-08-28T06:28:03,42.805,6.029,-0.027,0.012,-0.009,104.0,109.0,101.0,13.3,1505.3,326.5,-0.7,1.8,2470.354,13.33,0.029,294.0
2020-08-28T06:31:03,42.805,6.029,-0.025,0.013,-0.02,104.0,108.0,102.0,13.4,1505.3,325.8,-0.7,1.8,2470.344,13.33,0.028,297.5
2020-08-28T06:34:03,42.805,6.029,-0.036,0.018,-0.014,103.0,108.0,102.0,13.4,1505.3,325.2,-0.7,1.9,2470.322,13.33,0.04,296.6
2020-08-28T06:37:03,42.805,6.029,-0.043,0.032,-0.025,104.0,108.0,102.0,13.3,1505.3,324.2,-0.7,1.8,2470.31,13.33,0.053,306.7
2020-08-28T06:40:03,42.805,6.029,-0.017,0.001,-0.012,104.0,108.0,102.0,13.3,1505.3,326.4,-0.7,1.8,2470.362,13.33,0.017,273.4
2020-08-28T06:43:03,42.805,6.029,-0.015,0.0,-0.02,105.0,107.0,103.0,13.4,1505.3,324.3,-0.7,1.8,2470.316,13.33,0.015,270.0
2020-08-28T06:46:03,42.805,6.029,-0.052,0.023,-0.049,103.0,108.0,101.0,13.3,1505.3,327.6,-0.7,1.8,2470.388,13.33,0.056,293.9
2020-08-28T06:49:03,42.805,6.029,-0.042,0.008,-0.054,103.0,109.0,102.0,13.3,1505.3,328.0,-0.7,1.8,2470.363,13.33,0.042,280.8
2020-08-28T06:52:03,42.805,6.029,-0.036,-0.003,-0.009,104.0,106.0,102.0,13.4,1505.3,328.3,-0.7,1.8,2470.339,13.33,0.036,265.2
2020-08-28T06:55:03,42.805,6.029,-0.038,-0.004,-0.014,105.0,108.0,101.0,13.4,1505.3,326.5,-0.7,1.8,2470.36,13.33,0.038,264.0
2020-08-28T06:58:03,42.805,6.029,0.005,0.006,0.018,103.0,108.0,102.0,13.3,1505.3,327.0,-0.7,1.9,2470.363,13.33,0.007,39.8
2020-08-28T07:04:03,42.805,6.029,-0.035,0.016,-0.035,103.0,108.0,102.0,13.4,1505.3,326.3,-0.7,1.8,2470.346,13.31,0.038,294.6
2020-08-28T07:07:03,42.805,6.029,-0.024,0.019,-0.013,103.0,107.0,101.0,13.4,1505.3,323.7,-0.7,1.8,2470.344,13.32,0.03,308.4
2020-08-28T07:10:03,42.805,6.029,-0.052,0.016,-0.007,104.0,107.0,102.0,13.4,1505.3,325.9,-0.7,1.8,2470.322,13.32,0.054,287.1
2020-08-28T07:13:03,42.805,6.029,-0.018,0.018,0.022,103.0,108.0,101.0,13.4,1505.3,324.8,-0.7,1.8,2470.344,13.32,0.025,315.0
2020-08-28T07:16:03,42.805,6.029,-0.021,0.011,-0.024,102.0,107.0,102.0,13.3,1505.3,325.9,-0.7,1.9,2470.361,13.32,0.023,297.6
2020-08-28T07:19:03,42.805,6.029,-0.025,0.005,-0.001,103.0,109.0,102.0,13.4,1505.3,326.8,-0.7,1.9,2470.365,13.33,0.025,281.3
2020-08-28T07:22:03,42.805,6.029,-0.044,0.024,-0.013,103.0,109.0,102.0,13.4,1505.3,328.0,-0.7,1.9,2470.327,13.33,0.05,298.6
2020-08-28T07:25:03,42.805,6.029,-0.02,0.018,-0.009,105.0,107.0,101.0,13.4,1505.3,325.3,-0.7,1.8,2470.332,13.33,0.026,312.0
2020-08-28T07:28:03,42.805,6.029,-0.044,0.012,-0.021,107.0,108.0,101.0,13.4,1505.3,325.7,-0.7,1.8,2470.289,13.33,0.045,285.3
2020-08-28T07:31:03,42.805,6.029,-0.051,0.028,0.005,103.0,108.0,102.0,13.4,1505.3,326.9,-0.7,1.8,2470.318,13.33,0.058,298.8
2020-08-28T07:34:03,42.805,6.029,-0.04,0.008,-0.03,103.0,107.0,101.0,13.4,1505.3,326.4,-0.7,1.9,2470.365,13.33,0.04,281.3
2020-08-28T07:37:03,42.805,6.029,-0.042,0.012,-0.01,104.0,107.0,101.0,13.4,1505.3,325.2,-0.7,1.9,2470.31,13.33,0.043,285.9
2020-08-28T07:40:03,42.805,6.029,-0.032,0.034,-0.006,101.0,107.0,101.0,13.4,1505.3,325.4,-0.7,1.8,2470.328,13.33,0.046,316.7
2020-08-28T07:43:03,42.805,6.029,-0.048,0.009,-0.023,103.0,107.0,101.0,13.4,1505.3,328.1,-0.7,1.8,2470.295,13.33,0.048,280.6
2020-08-28T07:46:03,42.805,6.029,-0.046,0.035,0.014,103.0,108.0,101.0,13.4,1505.3,325.3,-0.7,1.8,2470.261,13.33,0.057,307.3
2020-08-28T07:49:03,42.805,6.029,-0.038,0.025,-0.043,102.0,106.0,101.0,13.4,1505.3,326.4,-0.7,1.8,2470.313,13.33,0.045,303.3
2020-08-28T07:52:03,42.805,6.029,-0.038,0.016,-0.015,102.0,108.0,102.0,13.3,1505.3,324.4,-0.7,1.8,2470.321,13.33,0.041,292.8
2020-08-28T07:55:03,42.805,6.029,-0.013,0.017,0.009,102.0,111.0,102.0,13.4,1505.3,327.1,-0.7,1.8,2470.343,13.33,0.021,322.6
2020-08-28T07:58:03,42.805,6.029,-0.041,0.013,-0.017,102.0,109.0,103.0,13.4,1505.3,328.1,-0.7,1.8,2470.309,13.33,0.043,287.6
2020-08-28T08:04:03,42.805,6.029,-0.038,0.019,-0.001,103.0,106.0,103.0,13.3,1505.3,322.8,-0.7,1.8,2470.344,13.31,0.042,296.6
2020-08-28T08:07:03,42.805,6.029,-0.052,0.003,-0.039,101.0,107.0,103.0,13.4,1505.3,323.8,-0.7,1.8,2470.353,13.32,0.052,273.3
2020-08-28T08:10:03,42.805,6.029,-0.001,0.011,0.025,102.0,107.0,102.0,13.3,1505.3,324.4,-0.7,1.9,2470.329,13.32,0.011,354.8
2020-08-28T08:13:03,42.805,6.029,-0.021,0.016,-0.004,104.0,107.0,102.0,13.4,1505.3,323.3,-0.7,1.8,2470.316,13.32,0.026,307.3
2020-08-28T08:16:03,42.805,6.029,-0.016,0.019,-0.018,101.0,110.0,101.0,13.4,1505.3,328.5,-0.7,1.8,2470.327,13.33,0.024,319.9
2020-08-28T08:19:03,42.805,6.029,-0.027,0.028,-0.005,101.0,109.0,101.0,13.4,1505.3,326.9,-0.7,1.9,2470.336,13.33,0.038,316.0
2020-08-28T08:22:03,42.805,6.029,-0.039,0.024,-0.024,104.0,109.0,101.0,13.3,1505.3,326.1,-0.7,1.8,2470.308,13.33,0.045,301.6
2020-08-28T08:25:03,42.805,6.029,-0.036,0.015,-0.028,102.0,108.0,102.0,13.4,1505.3,323.5,-0.7,1.8,2470.333,13.33,0.039,292.6
2020-08-28T08:28:03,42.805,6.029,-0.033,0.021,-0.012,103.0,107.0,102.0,13.4,1505.3,327.5,-0.7,1.8,2470.299,13.33,0.039,302.5
2020-08-28T08:31:03,42.805,6.029,-0.043,0.03,-0.045,103.0,108.0,101.0,13.3,1505.3,326.1,-0.7,1.8,2470.3,13.33,0.052,304.9
2020-08-28T08:34:03,42.805,6.029,-0.029,0.027,0.022,102.0,108.0,101.0,13.3,1505.3,328.1,-0.7,1.8,2470.318,13.33,0.039,313.0
2020-08-28T08:37:03,42.805,6.029,-0.037,0.021,-0.027,102.0,107.0,102.0,13.3,1505.3,325.1,-0.7,1.9,2470.319,13.33,0.042,299.6
2020-08-28T08:40:03,42.805,6.029,-0.049,0.011,-0.026,102.0,107.0,102.0,13.4,1505.3,326.4,-0.7,1.8,2470.258,13.33,0.05,282.7
2020-08-28T08:43:03,42.805,6.029,-0.039,0.018,-0.016,102.0,108.0,102.0,13.4,1505.3,328.0,-0.7,1.8,2470.312,13.33,0.042,294.8
2020-08-28T08:46:03,42.805,6.029,-0.015,-0.001,-0.026,102.0,107.0,101.0,13.4,1505.3,324.1,-0.7,1.9,2470.284,13.33,0.015,266.2
2020-08-28T08:49:03,42.805,6.029,-0.025,0.015,-0.009,103.0,109.0,101.0,13.3,1505.3,325.9,-0.7,1.8,2470.281,13.33,0.029,301.0
2020-08-28T08:52:03,42.805,6.029,-0.066,0.008,-0.036,104.0,109.0,101.0,13.4,1505.3,327.2,-0.7,1.8,2470.307,13.33,0.066,276.9
2020-08-28T08:55:03,42.805,6.029,-0.024,0.031,-0.019,103.0,108.0,101.0,13.4,1505.3,324.1,-0.7,1.8,2470.298,13.33,0.039,322.3
2020-08-28T08:58:03,42.805,6.029,-0.053,0.015,-0.007,104.0,107.0,101.0,13.4,1505.3,325.9,-0.7,1.9,2470.284,13.33,0.055,285.8
2020-08-28T09:04:03,42.805,6.029,-0.038,0.012,-0.04,104.0,107.0,101.0,13.4,1505.3,325.6,-0.7,1.8,2470.33,13.31,0.039,287.5
2020-08-28T09:07:03,42.805,6.029,-0.023,-0.003,-0.017,104.0,111.0,107.0,13.4,1505.3,325.7,-0.7,1.8,2470.315,13.32,0.023,262.6
2020-08-28T09:10:03,42.805,6.029,-0.02,0.021,-0.01,105.0,108.0,101.0,13.3,1505.3,323.7,-0.7,1.8,2470.294,13.32,0.028,316.4
2020-08-28T09:13:03,42.805,6.029,-0.029,0.015,0.004,104.0,109.0,101.0,13.4,1505.3,324.4,-0.7,1.8,2470.337,13.32,0.032,297.4
2020-08-28T09:16:03,42.805,6.029,-0.033,0.007,-0.023,104.0,107.0,101.0,13.3,1505.3,324.0,-0.7,1.8,2470.333,13.33,0.033,282.0
2020-08-28T09:19:03,42.805,6.029,-0.047,0.027,-0.012,104.0,108.0,101.0,13.3,1505.3,327.9,-0.7,1.8,2470.292,13.33,0.054,299.9
2020-08-28T09:22:03,42.805,6.029,-0.014,0.009,-0.004,103.0,107.0,103.0,13.3,1505.3,325.2,-0.7,1.8,2470.31,13.33,0.016,302.7
2020-08-28T09:25:03,42.805,6.029,-0.027,0.01,-0.023,102.0,108.0,101.0,13.4,1505.3,324.7,-0.7,1.9,2470.325,13.33,0.028,290.3
2020-08-28T09:28:03,42.805,6.029,-0.036,0.015,-0.024,104.0,107.0,102.0,13.4,1505.3,324.5,-0.6,1.9,2470.281,13.33,0.039,292.6
2020-08-28T09:31:03,42.805,6.029,-0.058,0.012,0.006,103.0,107.0,105.0,13.4,1505.3,325.0,-0.7,1.9,2470.266,13.33,0.059,281.7
2020-08-28T09:34:03,42.805,6.029,-0.036,0.016,-0.027,104.0,107.0,101.0,13.4,1505.3,326.8,-0.7,1.8,2470.3,13.33,0.039,294.0
2020-08-28T09:37:03,42.805,6.029,-0.029,0.006,-0.015,102.0,108.0,102.0,13.4,1505.3,322.8,-0.7,1.9,2470.328,13.33,0.029,281.7
2020-08-28T09:40:03,42.805,6.029,-0.031,0.016,-0.017,103.0,107.0,103.0,13.4,1505.3,327.8,-0.7,1.8,2470.243,13.33,0.034,297.3
2020-08-28T09:43:03,42.805,6.029,-0.045,0.014,-0.023,105.0,108.0,102.0,13.4,1505.3,325.3,-0.7,1.8,2470.274,13.33,0.047,287.3
2020-08-28T09:46:03,42.805,6.029,-0.045,0.011,-0.028,103.0,107.0,101.0,13.4,1505.3,323.9,-0.7,1.8,2470.286,13.33,0.046,283.7
2020-08-28T09:49:03,42.805,6.029,-0.036,0.01,-0.031,103.0,109.0,102.0,13.4,1505.3,324.2,-0.7,1.8,2470.316,13.33,0.037,285.5
2020-08-28T09:52:03,42.805,6.029,-0.049,0.02,0.004,103.0,109.0,102.0,13.4,1505.3,323.2,-0.7,1.8,2470.292,13.33,0.052,292.2
2020-08-28T09:55:03,42.805,6.029,-0.028,0.003,-0.021,104.0,107.0,102.0,13.4,1505.3,324.3,-0.7,1.8,2470.268,13.33,0.028,276.1
2020-08-28T09:58:03,42.805,6.029,-0.06,0.039,-0.018,102.0,108.0,103.0,13.4,1505.3,327.1,-0.7,1.8,2470.29,13.33,0.071,303.0